PROGRESS-MS 09 (43537 NORAD) Tracking and Keplerian Element Data

This shows tracking and keplerian element data for the satellite.

Feedback or suggestion? Click here.




ElementValue
Catalog43537
NamePROGRESS-MS 09
Epoch Orbit3087
Epoch Day24.45977051
Epoch Year2019
RAAN356.0588
Inclination51.6429
Eccentricity0.000463
Argument of Perigee307.4163
Mean Anonmoly196.1396
Mean Motion15.5316842
Decay Rate2.53E-06
L11 43537U 18058A 19024.45977051 .00000253 00000-0 11397-4 0 9993
L22 43537 51.6429 356.0588 0004630 307.4163 196.1396 15.53168420 30871

Live tracking and technical data element details for PROGRESS-MS 09 (NORAD 43537). PROGRESS-MS 09 can be tracked NOW for your location showing map with azimuth and elevation plus other details from your city location.

Track the satellite on the map from your city or location and see movement details for azimuth, elevation, latitude, longitude, range, height, and movement on the map or in text.







IsCatalogInMostPopularTable: catalog: 43537, numindb: 121
Update: records affected: 1



GetName: 43537 PROGRESS-MS 09

Hit Count: updated at: Thu, 25 Apr 2019 19:41:10 GMT